| time (UTC) | temp F | wind direction | speed MPH | gust MPH | rain 1hr in | rain 24hr in | rain mn in | humidity % | barometer mb |
| 20260506185018 | 63 | 311 | 4.0 | 8.0 | 0.00 | 0.00 | 0.00 | 42 | 1010.5 |
| 20260506184100 | 62 | 249 | 4.0 | 11.0 | 0.00 | 0.00 | 0.00 | 46 | 1010.6 |
| 20260506183019 | 62 | 254 | 4.0 | 10.0 | 0.00 | 0.00 | 0.00 | 47 | 1010.6 |
| 20260506182040 | 61 | 247 | 3.0 | 7.0 | 0.00 | 0.00 | 0.00 | 50 | 1010.7 |
| 20260506181041 | 61 | 237 | 3.0 | 10.0 | 0.00 | 0.00 | 0.00 | 51 | 1010.8 |
| 20260506180016 | 61 | 232 | 5.0 | 11.0 | 0.00 | 0.00 | 0.00 | 49 | 1010.8 |
| 20260506175019 | 61 | 257 | 3.0 | 8.0 | 0.00 | 0.00 | 0.00 | 52 | 1011.0 |
| 20260506174040 | 60 | 235 | 4.0 | 10.0 | 0.00 | 0.00 | 0.00 | 52 | 1011.1 |
| 20260506173021 | 60 | 255 | 5.0 | 11.0 | 0.00 | 0.00 | 0.00 | 52 | 1011.1 |
| 20260506172020 | 60 | 275 | 4.0 | 9.0 | 0.00 | 0.00 | 0.00 | 51 | 1011.2 |
| 20260506171017 | 60 | 249 | 4.0 | 9.0 | 0.00 | 0.00 | 0.00 | 53 | 1011.2 |
| 20260506170017 | 60 | 259 | 4.0 | 10.0 | 0.00 | 0.00 | 0.00 | 54 | 1011.3 |
| 20260506165020 | 60 | 245 | 3.0 | 9.0 | 0.00 | 0.00 | 0.00 | 55 | 1011.4 |
| 20260506164021 | 59 | 224 | 4.0 | 12.0 | 0.00 | 0.00 | 0.00 | 56 | 1011.4 |
| 20260506163018 | 59 | 272 | 4.0 | 8.0 | 0.00 | 0.00 | 0.00 | 57 | 1011.4 |
| 20260506162018 | 58 | 274 | 3.0 | 6.0 | 0.00 | 0.00 | 0.00 | 59 | 1011.4 |
| 20260506161019 | 58 | 266 | 4.0 | 10.0 | 0.00 | 0.00 | 0.00 | 60 | 1011.4 |
| 20260506160018 | 58 | 286 | 2.0 | 8.0 | 0.00 | 0.00 | 0.00 | 60 | 1011.4 |
| 20260506155018 | 57 | 254 | 3.0 | 6.0 | 0.00 | 0.00 | 0.00 | 60 | 1011.4 |
| 20260506154018 | 57 | 299 | 3.0 | 7.0 | 0.00 | 0.00 | 0.00 | 60 | 1011.4 |
| 20260506153019 | 57 | 283 | 3.0 | 6.0 | 0.00 | 0.00 | 0.00 | 60 | 1011.4 |
| 20260506152021 | 56 | 262 | 2.0 | 5.0 | 0.00 | 0.00 | 0.00 | 60 | 1011.3 |
| 20260506151021 | 56 | 259 | 2.0 | 5.0 | 0.00 | 0.00 | 0.00 | 60 | 1011.3 |
| 20260506150038 | 55 | 249 | 3.0 | 8.0 | 0.00 | 0.00 | 0.00 | 61 | 1011.3 |
| 20260506145019 | 55 | 232 | 2.0 | 8.0 | 0.00 | 0.00 | 0.00 | 61 | 1011.3 |
| 20260506144019 | 55 | 237 | 2.0 | 5.0 | 0.00 | 0.00 | 0.00 | 61 | 1011.2 |
| 20260506143020 | 55 | 254 | 1.0 | 3.0 | 0.00 | 0.00 | 0.00 | 60 | 1011.2 |
| 20260506142020 | 55 | 246 | 1.0 | 3.0 | 0.00 | 0.00 | 0.00 | 60 | 1011.2 |
| 20260506141017 | 54 | 246 | 1.0 | 4.0 | 0.00 | 0.00 | 0.00 | 61 | 1011.2 |
| 20260506140019 | 53 | 256 | 1.0 | 4.0 | 0.00 | 0.00 | 0.00 | 62 | 1011.2 |
| 20260506135022 | 53 | 247 | 2.0 | 5.0 | 0.00 | 0.00 | 0.00 | 62 | 1011.1 |
| 20260506134043 | 53 | 243 | 3.0 | 6.0 | 0.00 | 0.00 | 0.00 | 62 | 1011.0 |
| 20260506133019 | 53 | 251 | 2.0 | 4.0 | 0.00 | 0.00 | 0.00 | 63 | 1010.9 |
| 20260506132018 | 52 | 286 | 3.0 | 5.0 | 0.00 | 0.00 | 0.00 | 62 | 1010.8 |
| 20260506131018 | 52 | 243 | 2.0 | 5.0 | 0.00 | 0.00 | 0.00 | 61 | 1010.8 |
| 20260506130018 | 51 | 254 | 2.0 | 3.0 | 0.00 | 0.00 | 0.00 | 63 | 1010.8 |
| 20260506125019 | 51 | 254 | 1.0 | 3.0 | 0.00 | 0.00 | 0.00 | 63 | 1010.8 |
| 20260506124019 | 51 | 269 | 2.0 | 5.0 | 0.00 | 0.00 | 0.00 | 63 | 1010.7 |
| 20260506123020 | 52 | 316 | 2.0 | 3.0 | 0.00 | 0.00 | 0.00 | 61 | 1010.7 |
| 20260506122019 | 52 | 274 | 1.0 | 3.0 | 0.00 | 0.00 | 0.00 | 60 | 1010.6 |
| 20260506121019 | 53 | 262 | 1.0 | 5.0 | 0.00 | 0.00 | 0.00 | 59 | 1010.7 |
| 20260506120017 | 54 | 218 | 2.0 | 5.0 | 0.00 | 0.00 | 0.00 | 57 | 1010.6 |
| 20260506115021 | 54 | 240 | 2.0 | 5.0 | 0.00 | 0.00 | 0.00 | 57 | 1010.5 |
| 20260506114022 | 54 | 258 | 2.0 | 4.0 | 0.00 | 0.00 | 0.00 | 56 | 1010.6 |
| 20260506113020 | 54 | 239 | 2.0 | 6.0 | 0.00 | 0.00 | 0.00 | 56 | 1010.5 |
| 20260506112017 | 54 | 273 | 2.0 | 4.0 | 0.00 | 0.00 | 0.00 | 54 | 1010.5 |
| 20260506111017 | 54 | 240 | 2.0 | 4.0 | 0.00 | 0.00 | 0.00 | 55 | 1010.4 |
| 20260506110017 | 53 | 218 | 1.0 | 4.0 | 0.00 | 0.00 | 0.00 | 57 | 1010.4 |
| 20260506105103 | 54 | 205 | 1.0 | 3.0 | 0.00 | 0.00 | 0.00 | 55 | 1010.3 |
| 20260506104023 | 55 | 217 | 2.0 | 4.0 | 0.00 | 0.00 | 0.00 | 53 | 1010.2 |
| 20260506103018 | 55 | 221 | 2.0 | 5.0 | 0.00 | 0.00 | 0.00 | 53 | 1010.1 |
| 20260506102018 | 55 | 218 | 2.0 | 4.0 | 0.00 | 0.00 | 0.00 | 52 | 1010.1 |
| 20260506101018 | 55 | 220 | 2.0 | 7.0 | 0.00 | 0.00 | 0.00 | 52 | 1010.0 |
| 20260506100020 | 56 | 230 | 2.0 | 5.0 | 0.00 | 0.00 | 0.00 | 51 | 1009.9 |
| 20260506095020 | 56 | 217 | 2.0 | 4.0 | 0.00 | 0.00 | 0.00 | 50 | 1009.9 |
| 20260506094019 | 56 | 226 | 2.0 | 4.0 | 0.00 | 0.00 | 0.00 | 49 | 1009.8 |
| 20260506093019 | 56 | 236 | 2.0 | 5.0 | 0.00 | 0.00 | 0.00 | 50 | 1009.7 |
| 20260506092020 | 56 | 277 | 2.0 | 5.0 | 0.00 | 0.00 | 0.00 | 50 | 1009.7 |
| 20260506091019 | 56 | 217 | 2.0 | 5.0 | 0.00 | 0.00 | 0.00 | 50 | 1009.6 |
| 20260506090019 | 57 | 218 | 1.0 | 3.0 | 0.00 | 0.00 | 0.00 | 49 | 1009.5 |
| 20260506085021 | 57 | 254 | 1.0 | 4.0 | 0.00 | 0.00 | 0.00 | 48 | 1009.5 |
| 20260506084020 | 57 | 284 | 1.0 | 3.0 | 0.00 | 0.00 | 0.00 | 48 | 1009.5 |
| 20260506083021 | 57 | 267 | 2.0 | 5.0 | 0.00 | 0.00 | 0.00 | 48 | 1009.5 |
| 20260506082017 | 57 | 238 | 2.0 | 3.0 | 0.00 | 0.00 | 0.00 | 49 | 1009.5 |
| 20260506081018 | 57 | 274 | 1.0 | 3.0 | 0.00 | 0.00 | 0.00 | 48 | 1009.6 |
| 20260506073018 | 56 | 338 | 2.0 | 4.0 | 0.00 | 0.00 | 0.00 | 50 | 1009.5 |
| 20260506072018 | 56 | 298 | 0.0 | 2.0 | 0.00 | 0.00 | 0.00 | 48 | 1009.4 |
| 20260506071019 | 57 | 300 | 0.0 | 1.0 | 0.00 | 0.00 | 0.00 | 47 | 1009.3 |
| 20260506062021 | 62 | 290 | 1.0 | 3.0 | 0.00 | 0.00 | 0.00 | 38 | 1009.0 |
| 20260506061039 | 63 | 71 | 0.0 | 1.0 | 0.00 | 0.00 | 0.00 | 35 | 1008.9 |
| 20260506051018 | 63 | 109 | 0.0 | 3.0 | 0.00 | 0.00 | 0.00 | 36 | 1009.0 |
| 20260506045021 | 64 | 118 | 1.0 | 5.0 | 0.00 | 0.00 | 0.00 | 34 | 1009.0 |
| 20260506044018 | 65 | 133 | 0.0 | 4.0 | 0.00 | 0.00 | 0.00 | 31 | 1008.9 |
| 20260506043018 | 65 | 105 | 2.0 | 3.0 | 0.00 | 0.00 | 0.00 | 31 | 1008.9 |
| 20260506042018 | 65 | 113 | 2.0 | 3.0 | 0.00 | 0.00 | 0.00 | 30 | 1008.8 |
| 20260506041018 | 66 | 109 | 0.0 | 2.0 | 0.00 | 0.00 | 0.00 | 31 | 1008.8 |
| 20260506040019 | 66 | 103 | 1.0 | 2.0 | 0.00 | 0.00 | 0.00 | 30 | 1008.8 |
| 20260506035020 | 67 | 0.0 | 0.0 | 0.00 | 0.00 | 0.00 | 29 | 1008.8 | |
| 20260506034020 | 68 | 0.0 | 0.0 | 0.00 | 0.00 | 0.00 | 29 | 1008.7 | |
| 20260506033019 | 69 | 0.0 | 0.0 | 0.00 | 0.00 | 0.00 | 29 | 1008.8 | |
| 20260506032020 | 70 | 128 | 0.0 | 2.0 | 0.00 | 0.00 | 0.00 | 28 | 1008.9 |
| 20260506031041 | 72 | 109 | 0.0 | 2.0 | 0.00 | 0.00 | 0.00 | 27 | 1008.8 |
| 20260506030021 | 74 | 136 | 0.0 | 2.0 | 0.00 | 0.00 | 0.00 | 24 | 1008.7 |
| 20260506025020 | 74 | 131 | 1.0 | 3.0 | 0.00 | 0.00 | 0.00 | 25 | 1008.8 |
| 20260506024020 | 74 | 121 | 2.0 | 4.0 | 0.00 | 0.00 | 0.00 | 25 | 1008.8 |
| 20260506023017 | 74 | 100 | 2.0 | 5.0 | 0.00 | 0.00 | 0.00 | 24 | 1008.8 |
| 20260506022017 | 74 | 111 | 2.0 | 5.0 | 0.00 | 0.00 | 0.00 | 24 | 1008.9 |
| 20260506021042 | 76 | 81 | 1.0 | 3.0 | 0.00 | 0.00 | 0.00 | 23 | 1008.8 |
| 20260506020022 | 76 | 72 | 1.0 | 3.0 | 0.00 | 0.00 | 0.00 | 23 | 1008.9 |
| 20260506015017 | 76 | 64 | 2.0 | 4.0 | 0.00 | 0.00 | 0.00 | 23 | 1008.9 |
| 20260506014018 | 76 | 188 | 1.0 | 2.0 | 0.00 | 0.00 | 0.00 | 23 | 1009.0 |
| 20260506013018 | 76 | 157 | 0.0 | 3.0 | 0.00 | 0.00 | 0.00 | 24 | 1009.1 |
| 20260506012018 | 76 | 45 | 2.0 | 7.0 | 0.00 | 0.00 | 0.00 | 23 | 1009.2 |
| 20260506011018 | 76 | 256 | 1.0 | 7.0 | 0.00 | 0.00 | 0.00 | 23 | 1009.3 |
| 20260506010018 | 76 | 92 | 2.0 | 5.0 | 0.00 | 0.00 | 0.00 | 23 | 1009.4 |
| 20260506005020 | 76 | 167 | 2.0 | 4.0 | 0.00 | 0.00 | 0.00 | 24 | 1009.6 |
| 20260506004019 | 75 | 151 | 0.0 | 2.0 | 0.00 | 0.00 | 0.00 | 25 | 1009.6 |
| 20260506003019 | 75 | 72 | 2.0 | 5.0 | 0.00 | 0.00 | 0.00 | 24 | 1009.8 |
| 20260506002019 | 75 | 236 | 2.0 | 6.0 | 0.00 | 0.00 | 0.00 | 24 | 1009.9 |
| 20260506001020 | 75 | 238 | 1.0 | 5.0 | 0.00 | 0.00 | 0.00 | 24 | 1010.0 |
| 20260506000020 | 74 | 228 | 2.0 | 7.0 | 0.00 | 0.00 | 0.00 | 25 | 1010.1 |
| 20260505235020 | 74 | 204 | 2.0 | 6.0 | 0.00 | 0.00 | 0.00 | 27 | 1010.2 |
| 20260505234017 | 74 | 208 | 1.0 | 5.0 | 0.00 | 0.00 | 0.00 | 25 | 1010.5 |
| 20260505233039 | 74 | 119 | 2.0 | 6.0 | 0.00 | 0.00 | 0.00 | 25 | 1010.5 |
| 20260505232017 | 73 | 75 | 2.0 | 7.0 | 0.00 | 0.00 | 0.00 | 26 | 1010.7 |
| 20260505231041 | 72 | 305 | 2.0 | 8.0 | 0.00 | 0.00 | 0.00 | 26 | 1010.9 |
| 20260505230018 | 73 | 162 | 3.0 | 9.0 | 0.00 | 0.00 | 0.00 | 25 | 1011.1 |
| 20260505225018 | 74 | 250 | 1.0 | 5.0 | 0.00 | 0.00 | 0.00 | 25 | 1011.1 |
| 20260505224018 | 73 | 175 | 2.0 | 5.0 | 0.00 | 0.00 | 0.00 | 24 | 1011.3 |
| 20260505223018 | 73 | 207 | 3.0 | 8.0 | 0.00 | 0.00 | 0.00 | 25 | 1011.3 |
| 20260505222018 | 72 | 178 | 1.0 | 4.0 | 0.00 | 0.00 | 0.00 | 26 | 1011.5 |
| 20260505221019 | 71 | 212 | 3.0 | 6.0 | 0.00 | 0.00 | 0.00 | 25 | 1011.7 |
| 20260505220019 | 72 | 234 | 3.0 | 8.0 | 0.00 | 0.00 | 0.00 | 25 | 1011.8 |
| 20260505215020 | 72 | 186 | 3.0 | 8.0 | 0.00 | 0.00 | 0.00 | 26 | 1011.8 |
| 20260505214041 | 72 | 223 | 3.0 | 9.0 | 0.00 | 0.00 | 0.00 | 25 | 1012.0 |
| 20260505213020 | 71 | 188 | 1.0 | 4.0 | 0.00 | 0.00 | 0.00 | 27 | 1012.2 |
| 20260505212016 | 70 | 205 | 2.0 | 5.0 | 0.00 | 0.00 | 0.00 | 26 | 1012.3 |
| 20260505211021 | 71 | 258 | 5.0 | 9.0 | 0.00 | 0.00 | 0.00 | 25 | 1012.4 |
| 20260505210020 | 72 | 242 | 3.0 | 7.0 | 0.00 | 0.00 | 0.00 | 26 | 1012.5 |
| 20260505205021 | 71 | 108 | 2.0 | 7.0 | 0.00 | 0.00 | 0.00 | 29 | 1012.6 |
| 20260505204017 | 70 | 224 | 1.0 | 6.0 | 0.00 | 0.00 | 0.00 | 28 | 1012.7 |
| 20260505203017 | 71 | 198 | 3.0 | 5.0 | 0.00 | 0.00 | 0.00 | 28 | 1012.9 |
| 20260505202017 | 70 | 202 | 2.0 | 4.0 | 0.00 | 0.00 | 0.00 | 28 | 1013.0 |
| 20260505201021 | 68 | 67 | 3.0 | 6.0 | 0.00 | 0.00 | 0.00 | 31 | 1013.1 |
| 20260505200018 | 68 | 118 | 2.0 | 5.0 | 0.00 | 0.00 | 0.00 | 30 | 1013.3 |
| 20260505195019 | 68 | 255 | 4.0 | 9.0 | 0.00 | 0.00 | 0.00 | 30 | 1013.4 |
| 20260505194018 | 68 | 45 | 2.0 | 5.0 | 0.00 | 0.00 | 0.00 | 30 | 1013.5 |
| 20260505193040 | 67 | 138 | 2.0 | 5.0 | 0.00 | 0.00 | 0.00 | 33 | 1013.5 |
| 20260505192019 | 67 | 53 | 4.0 | 7.0 | 0.00 | 0.00 | 0.00 | 33 | 1013.6 |
| 20260505191019 | 66 | 80 | 1.0 | 8.0 | 0.00 | 0.00 | 0.00 | 32 | 1013.8 |
| 20260505190019 | 66 | 7 | 2.0 | 6.0 | 0.00 | 0.00 | 0.00 | 34 | 1013.9 |